Terug naar catalogus

STARLINK-3111

ActiefCommunicatieVLEO
NORAD 49418·PAYLOAD·🇺🇸 United States

Gelanceerd Nov 13, 2021 vanaf Cape Canaveral Space Force Station

Loading…

Volgende Passages (komende 24 uur)

TLE

VersSource: CelesTrak SupGP

Epoch: Sep 14, 2026, 13:15 UTC

1 49418C 21104L   26257.55256944 -.00004187  00000+0 -12704-3 0  2571
2 49418  53.1571  89.6430 0001328 100.5205 139.6482 15.33555974    18

Volg STARLINK-3111 in realtime met AllMySat

Download on the App Store